Probability
0 0 0 0 0 0 0 0 0 0 0 0 0 0 0 0 0 0 0 0 0 0 0 0 0 0 0 0 0 0 0 0 0 0 0 0 0 0 0 0 0 0 0
0 0 0 0 0 0 0 0 0 0 0 0 0 0 0 0 0 0 0 0 0 0 0 0 0 0 0 0 0 0 0 0 0 0 0 0 0 0 0 0 0 0 0
0 0 0 0 0 0 0 0 0 0 0 0 0 0 0 0 0 0 0 0 0 0 0 0 0 0 0 0 0 0 0 0 0 0 0 0 0 0 0 0 0 0 0
0 0 0 0 0 0 0 0 0 0 0 0 0 0 0 0 0 0 0 0 0 0 0 0 0 0 0 0 0 0 0 0 0 0 0 0 0 0 0 0 0 0 0
0 0 0 0 0 0 0 0 0 0 0 0 0 0 0 0 0 0 0 0 0 0 0 0 0 0 0 0 0 0 0 0 0 0 0 0 0 0 0 0 0 0 0
0 0 0 0 0 0 0 0 0 0 0 0 0 0 0 0 0 0 0 0 0 0 0 0 0 0 0 0 0 0 0 0 0 0 0 0 0 0 0 0 0 0 0
0 0 0 0 0 0 0 0 0 0 0 0 0 0 0 0 0 0 0 0 0 0 0 0 0 0 0 0 0 0 0 0 0 0 0 0 0 0 0 0 0 0 0
0 0 0 0 0 0 0 0 0 0 0 0 0 0 0 0 0 0 0 0 0 0 0 0 0 0 0 0 0 0 0 0 0 0 0 0 0 0 0 0 0 0 0
0 0 0 0 0 0 0 0 0 0 0 0 0 0 0 0 0 0 0 0 0 0 0 0 0 0 0 0 0 0 0 0 0 0 0 0 0 0 0 0 0 0 0
0 0 0 0 0 0 0 0 0 0 0 0 0 0 0 0 0 0 0 0 0 0 0 0 0 0 0 0 0 0 0 0 0 0 0 0 0 0 0 0 0 0 0
0 0 0 0 0 0 0 0 0 0 0 0 0 0 0 0 0 0 0 0 0 0 0 0 0 0 0 0 0 0 0 0 0 0 0 0 0 0 0 0 0 0 0
0 0 0 0 0 0 0 0 0 0 0 0 0 0 0 0 0 0 0 0 0 0 0 0 0 0 0 0 0 0 0 0 0 0 0 0 0 0 0 0 0 0 0
0 0 0 0 0 0 0 0 0 0 0 0 0 0 0 0 0 0 0 0 0 0 0 0 0 0 0 0 0 0 0 0 0 0 0 0 0 0 0 0 0 0 0
0 0 0 0 0 0 0 0 0 0 0 0 0 0 0 0 0 0 0 0 0 0 0 0 0 0 0 0 0 0 0 0 0 0 0 0 0 0 0 0 0 0 0
0 0 0 0 0 0 0 0 0 0 0 0 0 0 0 0 0 0 0 0 0 0 0 0 0 0 0 0 0 0 0 0 0 0 0 0 0 0 0 0 0 0 0
0 0 0 0 0 0 0 0 0 0 0 0 0 0 0 0 0 0 0 0 0 0 0 0 0 0 0 0 0 0 0 0 0 0 0 0 0 0 0 0 0 0 0
0 0 0 0 0 0 0 0 0 0 0 0 0 0 0 0 0 0 0 0 0 0 0 0 0 0 0 0 0 0 0 0 0 0 0 0 0 0 0 0 0 0 0
0 0 0 0 0 0 0 0 0 0 0 0 0 0 0 0 0 0 0 0 0 0 0 0 0 0 0 0 0 0 0 0 0 0 0 0 0 0 0 0 0 0 0
0 0 0 0 0 0 0 0 0 0 0 0 0 0 0 0 0 0 0 0 0 0 0 0 0 0 0 0 0 0 0 0 0 0 0 0 0 0 0 0 0 0 0
0 0 0 0 0 0 0 0 0 0 0 0 0 0 0 0 0 0 0 0 0 0 0 0 0 0 0 0 0 0 0 0 0 0 0 0 0 0 0 0 0 0 0
0 0 0 0 0 0 0 0 0 0 0 0 0 0 0 0 0 0 0 0 0 0 0 0 0 0 0 0 0 0 0 0 0 0 0 0 0 0 0 0 0 0 0
0 0 0 0 0 0 0 0 0 0 0 0 0 0 0 0 0 0 0 0 0 0 0 0 0 0 0 0 0 0 0 0 0 0 0 0 0 0 0 0 0 0 0
0 0 0 0 0 0 0 0 0 0 0 0 0 0 0 0 0 0 0 0 0 0 0 0 0 0 0 0 0 0 0 0 0 0 0 0 0 0 0 0 0 0 0
0 0 0 0 0 0 0 0 0 0 0 0 0 0 0 0 0 0 0 0 0 0 0 0 0 0 0 0 0 0 0 0 0 0 0 0 0 0 0 0 0 0 0
0 0 0 0 0 0 0 0 0 0 0 0 0 0 0 0 0 0 0 0 0 0 0 0 0 0 0 0 0 0 0 0 0 0 0 0 0 0 0 0 0 0 0
0 0 0 0 0 0 0 0 0 0 0 0 0 0 0 0 0 0 0 0 0 0 0 0 0 0 0 0 0 0 0 0 0 0 0 0 0 0 0 0 0 0 0
Wind_Speed
1 1 1 1 1 0 1 1 1 1 1 1 1 1 1 1 1 1 1 1 2 2 1 2 2 2 2 2 2 2 3 3 5 4 3 3 3 3 3 3 3 4 4
2 1 1 1 1 1 1 1 1 1 1 1 1 1 2 2 2 2 2 2 2 2 3 3 3 2 3 2 2 3 3 3 4 5 4 3 3 3 3 3 4 3 3
1 2 1 1 1 2 2 2 1 2 1 1 1 2 2 2 2 3 3 3 3 3 3 4 4 3 4 3 3 3 3 3 3 4 4 3 2 2 3 3 4 3 3
2 2 2 2 2 2 2 2 2 2 2 2 2 2 2 3 3 3 3 3 3 3 3 4 4 4 4 4 3 3 3 3 3 3 4 3 3 2 2 3 4 3 3
2 3 3 2 2 1 1 2 2 2 2 2 2 2 2 3 3 3 3 3 2 3 3 3 3 4 5 4 3 3 3 3 2 3 4 3 3 2 3 3 4 4 3
3 3 2 1 1 1 2 1 2 2 2 2 3 3 3 3 4 5 3 3 3 3 3 3 3 3 4 5 6 6 5 4 4 3 4 5 5 4 3 3 4 3 4
3 3 2 2 2 2 2 2 2 2 2 2 3 3 3 4 5 5 4 2 3 3 3 3 3 3 3 3 5 6 5 6 7 5 6 6 6 5 4 5 5 5 5
3 3 3 2 3 2 2 3 3 2 2 3 3 3 3 4 5 5 4 2 2 3 3 3 3 3 3 3 3 4 4 4 5 5 6 6 6 5 5 6 6 5 4
3 3 3 3 3 3 4 3 3 2 2 3 3 3 3 4 5 4 3 2 2 3 3 3 3 4 5 5 3 4 4 4 4 6 7 7 9 9 6 3 3 4 4
4 4 3 4 4 4 4 3 2 2 3 2 3 2 3 4 5 5 4 2 2 2 2 3 4 5 6 6 3 3 5 5 3 4 4 6 6 6 7 5 4 4 3
3 2 3 3 3 3 3 2 2 2 2 2 2 3 3 4 5 5 5 2 3 3 3 3 3 6 7 7 5 4 6 5 4 4 4 4 3 3 3 4 4 4 5
2 2 2 2 2 2 2 2 2 2 2 2 2 3 2 3 4 5 5 5 4 3 3 3 3 6 7 7 5 5 6 5 2 3 3 3 3 4 3 4 4 5 5
2 3 3 2 2 2 3 3 2 2 2 2 2 3 2 2 3 5 5 5 5 3 3 5 6 6 6 5 5 6 4 2 2 3 4 4 3 4 3 3 4 4 4
3 3 3 2 2 2 2 2 3 3 3 3 3 3 3 2 3 2 2 2 3 3 2 3 5 5 4 4 3 3 2 2 3 3 4 4 3 3 3 3 3 3 4
3 3 3 3 3 2 2 3 3 4 5 4 4 3 3 3 4 5 3 2 2 2 1 1 1 1 1 2 2 2 2 2 2 3 3 3 3 4 4 3 3 3 3
3 3 3 2 2 2 2 1 4 4 5 6 6 5 4 5 6 5 5 4 4 3 1 1 2 2 2 2 3 3 2 2 3 3 3 3 4 4 4 3 3 3 4
4 4 3 3 3 2 2 2 2 2 2 3 4 5 5 4 4 4 3 3 2 1 0 1 2 2 2 3 3 3 3 3 2 3 3 3 4 4 4 4 3 3 4
4 3 3 3 3 3 3 2 2 2 2 2 3 4 5 4 4 3 2 1 1 1 1 2 2 2 3 3 3 3 3 3 2 3 3 3 3 4 4 4 4 4 4
4 3 3 2 2 2 2 2 2 2 2 2 2 3 3 3 3 3 2 0 1 2 2 2 2 2 2 3 3 3 3 3 3 3 3 4 3 4 4 4 4 5 5
3 4 3 3 3 2 2 2 2 2 2 2 2 2 2 1 1 1 1 1 1 2 2 2 3 3 3 3 3 3 3 3 3 3 3 3 4 4 5 5 4 4 4
3 3 4 3 3 3 3 3 3 3 3 3 3 3 4 2 2 2 2 2 2 3 3 3 3 3 3 3 3 3 4 4 3 3 3 4 4 4 4 4 4 4 4
3 3 3 3 3 3 3 3 3 3 3 3 2 2 3 2 2 2 2 2 3 3 3 3 3 3 3 3 4 4 4 4 4 4 4 4 4 4 4 4 4 4 3
3 3 3 3 3 3 3 3 3 3 3 3 2 2 2 2 2 2 3 3 3 3 3 2 3 3 3 3 4 4 5 5 4 4 4 4 4 4 3 4 4 4 4
3 4 4 3 3 3 3 3 3 3 3 3 3 2 3 3 3 3 3 3 3 3 3 3 4 5 6 4 3 4 4 5 5 4 6 5 4 4 3 4 4 4 4
3 4 4 4 4 4 3 3 3 3 3 3 3 3 3 3 3 3 3 3 3 3 4 4 3 4 6 6 6 5 7 8 6 4 4 4 4 4 4 4 4 4 4
3 4 3 3 3 4 4 4 3 3 3 3 3 3 3 3 3 3 3 3 3 3 4 4 4 6 7 6 6 7 8 8 6 6 4 4 4 4 4 3 4 4 3
Wind_Direction
223 228 202 207 223 212 223 247 239 231 212 210 216 217 221 233 217 202 223 224 227 248 256 247 260 272 267 256 251 247 244 235 250 270 270 267 254 258 270 272 270 254 259
223 219 227 212 200 218 246 263 248 230 220 220 227 234 233 233 224 212 226 231 230 244 253 249 253 254 260 262 250 248 250 250 248 268 276 271 261 253 257 270 284 273 258
216 207 216 218 216 230 247 256 256 237 230 224 216 228 239 242 235 228 225 230 240 247 249 248 247 242 250 256 252 247 250 257 248 258 276 276 274 281 280 283 281 267 273
213 209 219 229 231 236 245 245 247 236 222 224 228 232 239 241 239 239 236 236 246 257 258 254 250 242 244 246 248 246 248 253 257 260 268 276 275 281 282 282 288 270 275
208 214 224 233 233 236 239 247 259 252 233 228 226 236 249 242 237 244 249 247 246 256 261 262 263 259 258 254 253 249 243 245 251 258 266 273 269 269 266 271 276 283 274
210 220 217 211 221 226 228 237 252 258 252 236 230 227 240 245 248 245 251 245 248 251 262 269 272 262 267 274 270 265 253 241 240 248 261 262 268 268 272 266 277 284 282
214 220 212 211 221 228 225 228 240 245 247 239 238 232 242 253 249 252 256 245 246 254 260 266 274 275 269 266 276 278 269 257 247 244 253 260 270 271 273 272 266 265 267
216 220 215 216 225 226 218 223 233 237 234 237 244 244 251 255 251 254 255 237 244 257 261 262 267 276 271 279 278 276 266 257 250 245 249 261 266 271 262 264 269 279 280
219 221 221 218 221 219 220 223 226 224 238 239 241 237 246 256 251 251 253 233 246 262 269 275 274 270 275 286 277 271 278 280 275 266 269 275 281 283 281 283 279 281 285
226 227 226 217 213 216 220 225 224 226 235 243 249 243 244 255 252 250 249 234 247 263 273 273 271 276 285 288 270 256 265 278 287 292 284 283 281 279 278 260 253 259 276
235 232 230 218 216 215 211 213 212 225 231 241 250 259 252 250 252 251 250 234 233 249 262 267 269 280 285 285 281 261 264 281 282 280 284 285 282 274 269 264 257 248 254
210 221 227 221 215 203 192 204 201 201 213 232 240 261 261 255 255 254 252 255 253 240 254 263 272 285 287 290 286 285 287 287 277 282 284 285 285 284 280 276 272 264 256
199 213 214 214 212 205 196 198 196 197 211 231 236 249 262 257 257 262 258 263 265 259 254 268 281 291 294 296 296 298 294 274 270 272 276 281 282 286 292 292 292 282 276
204 213 204 197 206 208 212 210 204 204 211 222 231 245 261 263 254 251 249 258 265 270 273 278 290 296 298 303 306 306 285 265 262 265 272 280 288 289 287 284 285 291 290
209 207 204 202 201 212 225 225 224 224 220 220 222 223 232 252 258 264 259 245 235 235 252 265 274 282 293 302 303 294 290 279 270 272 277 286 289 289 289 287 279 282 275
205 204 202 201 202 204 213 267 268 260 257 253 250 245 250 256 272 270 274 283 281 269 253 238 254 258 266 275 285 290 285 282 279 278 275 274 280 283 289 289 277 270 272
205 205 199 197 199 202 203 210 250 299 291 279 273 268 267 269 274 278 284 293 305 314 232 248 255 258 264 269 270 271 276 282 284 280 278 278 278 279 279 281 279 274 275
203 201 195 195 195 197 202 210 215 220 258 286 293 286 283 284 287 295 307 333 309 293 237 245 255 259 261 263 266 272 278 282 280 278 278 277 277 279 276 272 273 272 274
196 196 190 188 190 192 195 201 208 213 225 256 296 305 310 306 308 311 330 210 218 249 255 256 258 256 257 259 262 265 267 271 274 274 275 277 274 271 273 272 270 275 273
198 197 186 181 184 185 189 195 204 209 218 232 248 265 292 309 283 294 275 232 232 251 256 258 262 258 255 255 259 261 265 268 270 270 274 274 273 271 272 272 268 266 269
189 186 180 178 187 190 192 199 204 207 218 233 246 254 268 248 238 247 253 249 245 248 251 254 256 256 256 254 253 254 257 262 263 264 268 271 271 274 275 271 268 265 268
183 181 180 187 190 192 197 200 202 208 216 228 251 264 277 273 246 248 254 258 257 252 247 245 251 251 247 246 246 249 254 259 261 261 263 266 267 271 275 269 266 267 263
179 177 180 184 185 190 198 201 203 208 217 224 231 247 257 250 249 251 256 261 260 260 260 252 254 261 260 253 247 244 249 254 255 253 257 263 266 265 269 265 259 263 262
177 181 183 184 183 190 199 207 209 211 216 221 226 232 241 245 249 256 261 265 266 268 265 259 256 261 268 265 256 251 253 257 255 248 245 251 259 264 264 266 258 255 256
182 185 188 190 190 195 199 207 211 213 215 220 224 231 239 244 251 258 263 265 268 271 276 274 270 270 270 267 266 266 266 269 264 250 241 241 247 252 255 262 263 258 250
188 191 193 192 193 195 197 205 211 213 217 221 224 228 234 241 248 255 260 264 272 278 282 281 278 281 281 275 271 273 271 269 261 245 233 232 237 245 247 254 257 252 247